Weather History for Point Mugu, CA

Change the Weather History Date:

Saturday, September 22, 2012

  Actual Average Record
Temperature  
Mean Temperature 66 °F -  
Max Temperature 75 °F 70 °F 91 °F (2004)
Min Temperature 59 °F 56 °F 33 °F (2010)
Cooling Degree Days 1    
Growing Degree Days 16 (Base 50)    
Moisture  
Dew Point 64 °F    
Average Humidity 95    
Maximum Humidity 100    
Minimum Humidity 79    
Precipitation  
Precipitation 0.00 in - - ()
Sea Level Pressure  
Sea Level Pressure 29.90 in    
Wind  
Wind Speed 3 mph (NW)    
Max Wind Speed 10 mph    
Max Gust Speed -    
Visibility 6 miles    
Events      
Averages and records for this station are not official NWS values.
T = Trace of Precipitation, MM = Missing Value Source: NWS Daily Summary

Daily Weather History Graph

Daily Weather History Graph

Search for Another Location

Airport:

Trip Planner

Search our weather history database for the weather conditions in past years. The results will help you decide how hot, cold, wet, or windy it might be!

Date:

Astronomy

Sep. 22, 2012 Rise Set
Actual Time 6:44 AM PDT 6:52 PM PDT
Civil Twilight 6:19 AM PDT 7:17 PM PDT
Nautical Twilight 5:50 AM PDT 7:46 PM PDT
Astronomical Twilight 5:21 AM PDT 8:15 PM PDT
Moon 1:51 PM PDT (9/22) No Moon Set
Length of Visible Light 12h 57m
Length of Day
12h 07m
Waxing Crescent, 50% of the Moon is Illuminated
Sep 22
Waxing Crescent
Sep 22
First Quarter
Sep 29
Full
Oct 8
Last Quarter
Oct 15
New

Hourly Weather History & Observations

Time (PDT) Temp. Dew Point Humidity Pressure Visibility Wind Dir Wind Speed Gust Speed Precip Events Conditions
12:54 AM 61.0 °F 61.0 °F 100% 29.87 in 4.0 mi Calm Calm - N/A   Clear
1:54 AM 62.1 °F 62.1 °F 100% 29.88 in 3.0 mi Calm Calm - N/A   Clear
2:54 AM 61.0 °F 61.0 °F 100% 29.88 in 4.0 mi North 3.5 mph - N/A   Clear
3:54 AM 61.0 °F 61.0 °F 100% 29.88 in 4.0 mi NE 3.5 mph - N/A   Clear
4:54 AM 61.0 °F 61.0 °F 100% 29.88 in 4.0 mi NE 3.5 mph - N/A   Clear
5:54 AM 61.0 °F 61.0 °F 100% 29.90 in 5.0 mi NE 3.5 mph - N/A   Mostly Cloudy
6:54 AM 59.0 °F 59.0 °F 100% 29.92 in 5.0 mi Calm Calm - N/A   Mostly Cloudy
7:10 AM 60.8 °F 60.8 °F 100% 29.92 in 4.0 mi Calm Calm - N/A   Mostly Cloudy
7:25 AM 60.8 °F 60.8 °F 100% 29.92 in 5.0 mi Calm Calm - N/A   Mostly Cloudy
7:38 AM 62.6 °F 62.6 °F 100% 29.92 in 5.0 mi Calm Calm - N/A   Scattered Clouds
7:54 AM 63.0 °F 63.0 °F 100% 29.93 in 5.0 mi Calm Calm - N/A   Scattered Clouds
8:54 AM 66.0 °F 64.0 °F 93% 29.94 in 5.0 mi Calm Calm - N/A   Mostly Cloudy
9:54 AM 70.0 °F 64.0 °F 81% 29.94 in 6.0 mi Calm Calm - N/A   Haze
10:54 AM 73.0 °F 66.0 °F 79% 29.94 in 8.0 mi South 9.2 mph - N/A   Scattered Clouds
11:54 AM 73.0 °F 68.0 °F 84% 29.93 in 7.0 mi South 6.9 mph - N/A   Mostly Cloudy
12:54 PM 73.9 °F 69.1 °F 85% 29.93 in 8.0 mi SW 10.4 mph - N/A   Mostly Cloudy
1:54 PM 73.0 °F 68.0 °F 84% 29.91 in 6.0 mi WSW 6.9 mph - N/A   Haze
2:54 PM 73.0 °F 66.9 °F 81% 29.90 in 5.0 mi West 6.9 mph - N/A   Haze
3:54 PM 72.0 °F 69.1 °F 91% 29.89 in 5.0 mi West 9.2 mph - N/A   Overcast
4:54 PM 70.0 °F 66.9 °F 90% 29.88 in 7.0 mi WNW 5.8 mph - N/A   Mostly Cloudy
5:54 PM 69.1 °F 66.0 °F 90% 29.89 in 7.0 mi WNW 9.2 mph - N/A   Mostly Cloudy
6:54 PM 66.0 °F 66.0 °F 100% 29.89 in 7.0 mi NW 8.1 mph - N/A   Mostly Cloudy
7:54 PM 64.9 °F 64.0 °F 97% 29.89 in 7.0 mi North 4.6 mph - N/A   Mostly Cloudy
8:54 PM 64.9 °F 64.9 °F 100% 29.90 in 6.0 mi NW 5.8 mph - N/A   Mostly Cloudy
9:54 PM 64.9 °F 64.9 °F 100% 29.91 in 6.0 mi NW 3.5 mph - N/A   Mostly Cloudy
10:54 PM 64.0 °F 64.0 °F 100% 29.89 in 5.0 mi North 4.6 mph - N/A   Clear
11:54 PM 63.0 °F 63.0 °F 100% 29.90 in 5.0 mi NNW 4.6 mph - N/A   Clear